Location: Hilton Head Island
(32.2163°N, 80.7526°W)
Time: 15:12:39
(UTC-04:00)

Tiros 1 despin weight - Pass Details

Date: 18 February 2026
Orbit: 556 x 593 km, 48.2° (Epoch: 10 March)

Event Time Altitude Azimuth Distance (km) Brightness Sun altitude
Rises 21:56:37 0° 304° (NW) 2,735 - -47.7°
Reaches altitude 10° 21:58:54 10° 299° (WNW) 1,841 - -48.1°
Maximum altitude 22:02:59 51° 224° (SW) 707 - -48.9°
Drops below altitude 10° 22:07:05 10° 148° (SSE) 1,851 - -49.7°
Sets 22:09:23 0° 143° (SE) 2,751 - -50.2°
